This is the latest recevied weather packets stored in our database for station/object W4KBW. If no packets are shown the sender has not sent any weather packets the latest 10 day(s).
| Time | Temp. | Humidity | Pressure | Rain* | Wind** | Luminosity | Snow |
|---|---|---|---|---|---|---|---|
| 1777434781 | 21.67° C | 100% | 1016.4 hPa | 0 mm | - | - | - |
| 1777434182 | 21.67° C | 100% | 1016.7 hPa | 0 mm | - | - | - |
| 1777433881 | 21.67° C | 100% | 1016.7 hPa | 0 mm | - | - | - |
| 1777433214 | 21.67° C | 100% | 1016.9 hPa | 0 mm | - | - | - |
| 1777432981 | 21.67° C | 100% | 1016.9 hPa | 0 mm | - | - | - |
| 1777429321 | 22.22° C | 100% | 1016.6 hPa | 0 mm | - | - | - |
| 1777424025 | 23.89° C | 100% | 1016.4 hPa | 0 mm | - | - | - |
| 1777414741 | 27.78° C | 100% | 1016.8 hPa | 0 mm | - | - | - |
| 1777412041 | 28.89° C | 100% | 1016.5 hPa | 0 mm | - | - | - |
| 1777411292 | 28.89° C | 100% | 1016.8 hPa | 0 mm | - | - | - |
| 1777410211 | 28.89° C | 100% | 1016.9 hPa | 0 mm | - | - | - |
| 1777407590 | 30.56° C | 100% | 1017.2 hPa | 0 mm | - | - | - |
| 1777406658 | 31.11° C | 100% | 1017.4 hPa | 0 mm | - | - | - |
| 1777405753 | 31.11° C | 100% | 1017.5 hPa | 0 mm | - | - | - |
| 1777405621 | 31.11° C | 100% | 1017.5 hPa | 0 mm | - | - | - |
| 1777404693 | 30.56° C | 100% | 1017.9 hPa | 0 mm | - | - | - |
| 1777403761 | 30.56° C | 100% | 1017.9 hPa | 0 mm | - | - | - |
| 1777403077 | 30.56° C | 100% | 1017.9 hPa | 0 mm | - | - | - |
| 1777400131 | 30° C | 100% | 1017.9 hPa | 0 mm | - | - | - |
| 1777399231 | 31.11° C | 100% | 1017.8 hPa | 0 mm | - | - | - |
| 1777398332 | 31.67° C | 100% | 1017.9 hPa | 0 mm | - | - | - |
| 1777397519 | 31.11° C | 100% | 1018.1 hPa | 0 mm | - | - | - |
| 1777397401 | 31.11° C | 100% | 1018.1 hPa | 0 mm | - | - | - |
| 1777396471 | 30° C | 100% | 1018.3 hPa | 0 mm | - | - | - |
| 1777395571 | 29.44° C | 100% | 1018.3 hPa | 0 mm | - | - | - |
* Rain latest hour (hover to see other rain measurements)
** Current wind speed in m/s (hover to see current wind gust speed)